Regional Weather Roundup
Issued by NWS

Home | Current Version | Previous Version | Text Only | Print | Product List | Glossary On
Versions: 1 2 3 4 5 6 7 8 9 10 11 12 13 14 15 16 17 18 19 20 21 22 23 24 25 26 27 28 29 30 31 32 33 34 35 36 37 38 39 40 41 42 43 44 45 46 47 48 49 50
000
ASUS44 KEWX 230311
RWRTX
SOUTH TEXAS REGIONAL WEATHER ROUNDUP
NATIONAL WEATHER SERVICE AUSTIN/SAN ANTONIO TX
1000 PM CDT WED MAR 22 2017

NOTE: "FAIR" INDICATED FEW OR NO CLOUDS BELOW 12,000 FEET WITH NO
SIGNIFICANT WEATHER AND/OR OBSTRUCTIONS TO VISIBILITY.

* - THESE STATIONS ARE NOT NWS OR FAA STATIONS...AND ARE NOT SUBJECT
    TO NWS AND FAA QUALITY CONTROL.

TXZ171-172-183>190-230400-
TEXAS HILL COUNTRY AND EDWARDS PLATEAU

CITY           SKY/WX    TMP DP  RH WIND       PRES   REMARKS
JUNCTION       CLEAR     70  59  68 SE6       30.07R
*LLANO         CLEAR     72  59  64 S5        30.11R
BURNET         CLEAR     71  58  63 S5        30.10R
*HORSESHOE BAY CLEAR     70  60  69 S5        30.09R
*KERRVILLE     CLEAR     67  61  79 SE7       30.09S
*FREDERICKSBRG CLEAR     69  57  66 S9        30.09S
*ROCKSPRINGS   CLEAR     66  61  82 SE12      30.10R
*BOERNE STAGE  CLEAR     68  59  73 SE9       30.11R
*CASTROVILLE   CLEAR     72  61  70 SE7       30.09R
HONDO          CLEAR     72  61  68 SE10      30.07R
*UVALDE        CLEAR     68  61  79 E7        30.06R
DEL RIO        CLEAR     73  65  75 E12       29.99R
LAUGHLIN AFB   PTCLDY    72  66  81 SE14      30.00R
CARRIZO SPRGS  CLEAR     72  59  64 SE3       30.02R
*EAGLE PASS    PTCLDY    75  61  60 E10       30.01R
$$

TXZ173-191>194-202-209-217>225-228-230400-
CENTRAL AND SOUTH CENTRAL TEXAS

CITY           SKY/WX    TMP DP  RH WIND       PRES   REMARKS
GEORGETOWN     CLEAR     72  57  60 S6        30.08
AUSTIN/BERGSTM CLEAR     69  60  73 S8        30.09R
AUSTIN/MABRY   CLEAR     73  59  61 VRB7      30.10R
*AUSTIN/EXEC   CLEAR     70  63  78 S9        30.10R
*LAGO VISTA    CLEAR     72  59  64 S6        30.10R
SAN MARCOS     CLEAR     70  61  73 S10       30.11R
NEW BRAUNFELS  CLEAR     69  61  75 S10       30.09R
RANDOLPH AFB   CLEAR     69  66  90 SE12      30.09R
PT SAN ANTONIO CLEAR     71  63  75 SE12      30.07R
SAN ANTONIO    PTCLDY    71  61  70 SE15      30.09R
STINSON FIELD  CLEAR     72  63  73 SE10      30.07R
*PLEASANTON    CLEAR     71  64  79 E8        30.08R
*LA GRANGE     CLEAR     70  64  81 SE5       30.09R
*GIDDINGS      CLEAR     70  61  71 S9        30.11R
*GONZALES      CLEAR     70  65  84 SE8       30.10R
$$

TXZ163>164-176>182-195>201-210>213-226-227-235-230400-
SOUTHEAST TEXAS

CITY           SKY/WX    TMP DP  RH WIND       PRES   REMARKS
COLLEGE STN    CLEAR     72  58  61 S10       30.10R
*BRYAN         CLEAR     73  58  60 S8        30.12R
*CALDWELL      NOT AVBL
*CROCKETT      CLEAR     70  61  73 SE6       30.14R
*BRENHAM       CLEAR     72  62  70 S7        30.13R
HUNTSVILLE     CLEAR     73  63  70 VRB6      30.11R
CONROE         CLEAR     71  64  78 SE9       30.13R
HOUSTON BUSH   CLEAR     72  64  76 S9        30.13R
HOUSTON HOBBY  CLEAR     69  65  86 S7        30.14R
*HOUSTON SW AP CLEAR     66  64  92 S3        30.15R
PEARLAND       CLEAR     71  65  81 S5        30.16R
HOUSTON HOOKS  CLEAR     72  64  76 S6        30.13R
ELLINGTON FLD  PTCLDY    72  64  78 SE6       30.15R
SUGAR LAND     CLEAR     70  65  84 S9        30.14R
*HOUSTON EXEC  CLEAR     68  64  88 S9        30.15R
*CLEVELAND MUN CLEAR     69  65  88 S7        30.15R
*WHARTON       CLEAR     67  63  87 SE5       30.14S
*COLUMBUS      FAIR      69  65  85 S10       30.13R
*EAGLE LAKE    PTCLDY    69  66  89 S5        30.13R
$$

TXZ214>216-236>238-230400-
THE UPPER TEXAS COAST

CITY           SKY/WX    TMP DP  RH WIND       PRES   REMARKS
*ORANGE        CLEAR     70  67  92 S6        30.17R
PORT ARTHUR    CLEAR     66  64  93 S5        30.15R
GALVESTON      PTCLDY    72  68  87 SE8       30.15R
ANGLETON       PTCLDY    68  65  90 S3        30.15R
*BAY CITY      CLEAR     67  66  94 SE3       30.14R
PALACIOS       PTCLDY    72  66  81 S13       30.13R
$$

TXZ229>234-239>247-230400-
TEXAS COASTAL BEND AND RIO GRANDE PLAINS

CITY           SKY/WX    TMP DP  RH WIND       PRES   REMARKS
VICTORIA       PTCLDY    69  65  86 SE9       30.12R
*BEEVILLE      CLEAR     69  69 100 SE6       30.10R
ROCKPORT       CLEAR     72  67  84 SE10G21   30.11R
*PORT ARANSAS  CLEAR     70  68  93 SE8       30.11R
*PORT LAVACA   CLEAR     69  68  96 CALM      30.12R
*INGLESIDE     CLEAR     72  68  88 SE6       30.10R
CORPUS CHRISTI CLEAR     71  67  87 SE16      30.10R
CORPUS NAS     CLEAR     72  66  81 SE15G24   30.10R
*ROBSTOWN      CLEAR     72  66  83 SE14      30.10R
ALICE          CLEAR     69  65  86 SE13      30.07R
KINGSVILLE NAS CLEAR     71  68  90 SE15      30.09R
COTULLA        CLEAR     76  64  66 SE14G23   30.04R
*FAITH RANCH   PTCLDY    77  57  50 E8        30.02R
LAREDO         CLEAR     77  59  53 SE15      30.03R
$$

TXZ248>255-230400-
DEEP SOUTH TEXAS

CITY           SKY/WX    TMP DP  RH WIND       PRES   REMARKS
BROWNSVILLE    CLEAR     71  66  84 SE7       30.10R
PORT ISABEL    CLEAR     72  67  84 SE13      30.09R
*SOUTH PADRE   NOT AVBL
HARLINGEN      CLEAR     71  67  87 SE10      30.08R
*HEBBRONVILLE  CLEAR     72  58  61 S13G18    30.06S
MCALLEN        CLEAR     74  64  71 SE13      30.07S
*WESLACO       CLEAR     72  64  77 SE9       30.07S
FALFURRIAS     CLEAR     72  65  80 SE10G16   30.07R
EDINBURG       CLEAR     73  64  74 SE9       30.08S
*ZAPATA        CLEAR     76  60  57 SE14G23   30.03R
$$

TXZ213>215-236>238-242>244-246-247-251-254-255-230400-
CMAN STATIONS

STATION/POSITION TIME  TEMP    WIND        PRES    WAVE
                       AIR SEA DIR/SP/G            HT/PER
                 (UTC) (F)     (DEG/KT/KT) (MB)    (FT/S)
SABINE PASS      0248   70 73  180/  6/  8 1022.6
SEA RIM ST PARK  0200   71     180/  8/  9 1021.1
NORTH JETTY/GLS  0248          160/ 11/ 12   N/A
EAGLE POINT      0248          180/ 12/ 13   N/A
MORGANS POINT    0248   72 71  170/  7/ 11 1020.8
MISSION/ARANSAS  0200   73                 1019.0
PORT O`CONNOR    0248   72     150/ 11/ 14 1019.7
PORT ARANSAS     0200   71 73  130/ 13/ 14 1018.8
MALAQUITE BEACH  0248   71 72  130/ 13/ 14 1019.9
BAFFIN BAY       0248   71 76  110/ 12/ 16 1019.4
PORT ISABEL      0248   73 73  150/ 10/ 13 1019.2
$$

GMZ080-GMZ150>470-230400-
OFFSHORE BUOY REPORTS

STATION/POSITION TIME  TEMP    WIND        PRES    WAVE
                       AIR SEA DIR/SP/G            HT/PER
                 (UTC) (F)     (DEG/KT/KT) (MB)    (FT/S)
20 E GALVESTON   0250   72 72  160/ 10/ 12 1020.8    2/ 5
90 E PT ARANSAS  0250   74 73  150/  8/ 12 1020.4    3/ 6
35 NE PT MANSFLD 0250   73     150/ 14/ 17 1018.8    3/ 5
200 E PT ISABEL  0250   74 76  120/ 10/ 12 1021.3    3/ 4
$$



USA.gov is the U.S. government's official web portal to all federal, state and local government web resources and services.